Regional Weather Roundup
Issued by NWS Upton, NY

Home | Current Version | Previous Version | Text Only | Print | Product List | Glossary On
Versions: 1 2 3 4 5 6 7 8 9 10 11 12 13 14 15 16 17 18 19 20 21 22 23 24 25 26 27 28 29 30 31 32 33 34 35 36 37 38 39 40 41 42 43 44 45 46 47 48 49 50
000
ASUS41 KOKX 262105
RWROKX

REGIONAL WEATHER ROUNDUP
NATIONAL WEATHER SERVICE NEW YORK NY
400 PM EST WED NOV 26 2014

NOTE: "FAIR" INDICATES FEW OR NO CLOUDS BELOW 12,000 FEET WITH NO
SIGNIFICANT WEATHER AND/OR OBSTRUCTIONS TO VISIBILITY.

NYZ071-072-176-178-NJZ106-104-262200-
NEW YORK CITY METRO AREA


CITY           SKY/WX    TMP DP  RH WIND       PRES   REMARKS
CENTRAL PARK   LGT RAIN  36  32  85 N15G22    29.85F FOG     WCI  27
LAGUARDIA APRT LGT RAIN  37  34  89 N16       29.83F WCI  28
KENNEDY INTL   LGT RAIN  38  35  89 N22G31    29.81F WCI  27
NEWARK/LIBERTY LGT RAIN  34  33  96 N18G24    29.83F FOG     WCI  23
BRNX BOT. GARD   N/A     34  34 100 N10       29.84F WCI  26
TETERBORO      LGT RAIN  36  32  87 N10G18    29.83F WCI  28
$$

NYZ177-179-078>081-262200-
LONG ISLAND NEW YORK

CITY           SKY/WX    TMP DP  RH WIND       PRES   REMARKS
FARMINGDALE    NOT AVBL
ISLIP          LGT RAIN  39  36  89 N21G31    29.78F FOG     WCI  29
SHIRLEY        RAIN      39  37  92 N10G24    29.79F FOG     WCI  32
WESTHAMPTON    LGT RAIN  40  37  89 NE26G33   29.79F WCI  29
MONTAUK POINT    N/A     41  38  89 NE21G32   29.78F
$$

NYZ052-065-067-262200-
HUDSON VALLEY

CITY           SKY/WX    TMP DP  RH WIND       PRES   REMARKS
WHITE PLAINS   LGT RAIN  34  32  92 N14       29.83F FOG     WCI  25
NEWBURGH       LGT SNOW  32  32 100 N14       29.94R VSB 3/4 WCI  22
MONTGOMERY     LGT SNOW  33  30  88 NE18      29.90F VSB 3/4 WCI  22
POUGHKEEPSIE   LGT SNOW  34  31  88 N12       29.92F VSB 3/4 WCI  25
ALBANY         SNOW      32  30  92 N12       30.02F VSB 1/2 WCI  23
$$

NJZ001-105-106-008-010-013-015-019>022-104-262200-
NEW JERSEY

CITY           SKY/WX    TMP DP  RH WIND       PRES   REMARKS
NEWARK/LIBERTY LGT RAIN  34  33  96 N18G24    29.83F FOG     WCI  23
TETERBORO      LGT RAIN  36  32  87 N10G18    29.83F WCI  28
CALDWELL       LGT SNOW  33  30  88 VRB5      29.86F FOG     WCI  29
MORRISTOWN     LGT SNOW  34  34 100 N7        29.86F WCI  28
SOMERVILLE     LGT SNOW  34  31  88 N6        29.81F FOG     WCI  29
SUSSEX         LGT SNOW  33  32  96 NE8       29.89F VSB 1   WCI  26
ANDOVER          N/A     33  32  96 VRB7      29.85F WCI  27
TRENTON        LGT RAIN  35  31  85 N12       29.80F WCI  27
MILLVILLE      LGT RAIN  38  35  89 N16       29.74F WCI  29
ATLANTIC CITY  LGT RAIN  38  37  97 N18G25    29.70F WCI  28
WRIGHTSTOWN    LGT RAIN  36  35  97 N16       29.76F WCI  26
TOMS RIVER     CLOUDY    37  36  93 N9        29.74F WCI  31
BELMAR         CLOUDY    37  32  81 N16G24    29.74F WCI  28
$$

PAZ047>061-062-071-262200-
EASTERN PENNSYLVANIA

CITY           SKY/WX    TMP DP  RH WIND       PRES   REMARKS
PHILADELPHIA   LGT RAIN  37  33  85 N17G26    29.83R WCI  27
ALLENTOWN      LGT SNOW  34  31  88 N6        29.88F FOG     WCI  29
SCRANTON       LGT SNOW  33  30  88 NW10      29.94R VSB 3/4 WCI  25
$$

CTZ002-004>006-009-010-012-RIZ004-006-007-MAZ004-011-015-262200-
SOUTHERN NEW ENGLAND
 IN CT

CITY           SKY/WX    TMP DP  RH WIND       PRES   REMARKS
BRADLEY INTL   LGTSLEET  34  31  88 N14       29.90F VSB 1   WCI  25
HARTFORD       LGT RAIN  33  31  92 N15       29.89F FOG     WCI  23
DANBURY        RAIN      34  30  85 NE7       29.89F FOG     WCI  28
WTRBRY/OXFORD  LGT SNOW  34  27  75 NE14G23   29.84  FOG     WCI  24
BRIDGEPORT     LGT RAIN  38  35  89 N17G26    29.85F WCI  28
MERIDEN        LGT RAIN  34  31  88 N13G20    29.88F FOG     WCI  25
NEW HAVEN      LGT RAIN  37  33  85 N14       29.85F WCI  28
CHESTER        RAIN      34  34 100 NE10G17   29.83F WCI  26
GROTON         RAIN      36  36 100 N18G28    29.82F FOG     WCI  26
WILLIMANTIC    RAIN      36  32  85 NE10      29.91S FOG     WCI  28

 IN RI

CITY           SKY/WX    TMP DP  RH WIND       PRES   REMARKS
PROVIDENCE     LGT RAIN  35  33  92 N15G24    29.91F FOG     WCI  25
BLOCK ISLAND   CLOUDY    39  36  87 NE25G38   29.79F WCI  28
WESTERLY       RAIN      37  35  92 NE15G28   29.82F FOG     WCI  28

 IN MA

CITY           SKY/WX    TMP DP  RH WIND       PRES   REMARKS
BOSTON         LGTSLEET  34  33  96 NE23G33   29.93F FOG     WCI  22
WORCESTER      MIX PCPN  31  31 100 NE13G31   29.89F VSB 1/2 WCI  21
WESTFIELD      SNOW      33  31  92 N15       29.92F VSB 1/2 WCI  23
PROVINCETOWN   CLOUDY    43  39  87 NE23G37   29.91F
NANTUCKET      HVY RAIN  45  43  93 NE24G37   29.81F FOG
$$

ANZ330-335-338-340-345-350-353-355-262200-
COASTAL MARINE OBSERVATIONS


STATION/POSITION TIME  SKY/WX   TEMP    WIND        PRES    VSBY  WAVE
                                AIR SEA DIR/SP/G                  HT/PER
                 (UTC)          (F)     (DEG/KT/KT) (MB)    (MI)  (FT/S)
NY HARB ENTRANCE 2100            42 54   10/ 27/ 35 1007.2          6/ 6
4S FIRE IS       2100               53                N/A           6/ 7
20S FIRE ISLAND  2100            44 55   30/ 33/ 39 1004.8          9/ 7
23SW MTP         2100                                 N/A          11/ 7
HUDSON CANYON    2100            51 59   40/ 35/ 43 1001.3
EXECUTION ROCKS  2100            39 48   20/ 19/ 27   N/A
WESTERN LI SOUND 2100            39      40/ 21/ 27   N/A           2/ 4
CENTRAL LI SOUND 2100            38 50   20/ 23/ 29   N/A           3/ 4
EASTERN LI SOUND 2000            40 52   30/ 21/ 27   N/A
ROBBINS REEF     2100            35     360/ 19/ 23 1008.8
$$


>>>>>>>>>>>>>>>>>>>>>>>>>>>> KEY <<<<<<<<<<<<<<<<<<<<<<<<<<<
>                                                          <
>     SKY/WX - SKY CONDITION/PRESENT WEATHER               <
>     TMP    - TEMPERATURE IN FAHRENHEIT                   <
>     DP     - DEWPOINT IN FAHRENHEIT                      <
>     RH     - RELATIVE HUMIDITY IN PERCENT                <
>     WIND   - DIRECTION AND SPEED IN MPH                  <
>     PRES   - MEAN SEA LEVEL PRESSURE IN INCHES OF HG     <
>     WCI    - WIND CHILL INDEX                            <
>     VSB    - VISIBILITY IN MILES                         <
>     HX     - HEAT INDEX                                  <
>     TC     - TEMPERATURE IN CELSIUS                      <
>     VRB    - VARIABLE WIND DIRECTION                     <
>                                                          <
>>>>>>>>>>>>>>>>>>>>>>>>>>>> KEY <<<<<<<<<<<<<<<<<<<<<<<<<<<




USA.gov is the U.S. government's official web portal to all federal, state and local government web resources and services.